Weather reports worldwide

Advertisment
Eskdalemuir, United Kingdom (3162): temperature & dewpoint: 12.08.2019 23:00:00 - 18.08.2019 23:00:00 (BST)Eskdalemuir, United Kingdom (3162): temperature -20cm & temperature -100cm: 12.08.2019 23:00:00 - 18.08.2019 23:00:00 (BST)Eskdalemuir, United Kingdom (3162): wind speed & gusts: 12.08.2019 23:00:00 - 18.08.2019 23:00:00 (BST)Eskdalemuir, United Kingdom (3162): wind direction: 12.08.2019 23:00:00 - 18.08.2019 23:00:00 (BST)Eskdalemuir, United Kingdom (3162): reduced air pressure: 12.08.2019 23:00:00 - 18.08.2019 23:00:00 (BST)Eskdalemuir, United Kingdom (3162): visibility: 12.08.2019 23:00:00 - 18.08.2019 23:00:00 (BST)Eskdalemuir, United Kingdom (3162): sunshine duration: 12.08.2019 23:00:00 - 18.08.2019 23:00:00 (BST)Eskdalemuir, United Kingdom (3162): precipitation: 12.08.2019 23:00:00 - 18.08.2019 23:00:00 (BST)
Date & Time tt [°C] td [°C] tt -20cm [°C] tt -100cm [°C] ff [km/h] ff [kn] fx [km/h] fx [kn] dd ppp [hPa] vv [km] sd [min] rr [mm]
18.08.2019 23:00:00 11,4 10,4 - - 16 9 - - SW 1000,9 19 0 0,0
18.08.2019 22:00:00 11,9 10,5 - - 15 8 - - SW 1000,4 17 0 0,2
18.08.2019 21:00:00 11,9 11,3 - - 8 4 - - SW 999,8 11 0 0,2
18.08.2019 20:00:00 11,9 11,0 - - 15 8 - - SSW 998,9 17 36 0,0
18.08.2019 19:00:00 12,9 11,6 - - 16 9 - - S 998,4 23 36 0,0
18.08.2019 18:00:00 13,1 11,7 - - 16 9 - - S 997,7 25 6 0,4
18.08.2019 17:00:00 12,1 10,8 - - 21 11 - - SSW 997,5 5 0 2,8
18.08.2019 16:00:00 14,2 12,1 - - 22 12 - - SSW 996,8 25 12 3,4
18.08.2019 15:00:00 12,9 11,5 - - 28 15 59 32 SW 996,5 9 6 1,0
18.08.2019 14:00:00 15,0 10,7 - - 28 15 50 27 SSW 995,5 15 6 0,0
18.08.2019 13:00:00 13,9 11,1 - - 34 18 52 28 SSW 995,3 14 6 0,0
18.08.2019 12:00:00 13,7 11,1 - - 29 16 50 27 SSW 995,2 16 6 0,2
18.08.2019 11:00:00 11,9 11,0 - - 26 14 - - SSW 995,0 11 0 0,2
18.08.2019 10:00:00 11,8 10,8 15,7 14,7 26 14 - - SSW 994,7 10 0 1,0
18.08.2019 09:00:00 11,6 10,6 - - 26 14 - - SSW 994,6 13 0 1,0
18.08.2019 08:00:00 11,4 10,5 - - 24 13 - - SSW 994,5 8 0 0,8
18.08.2019 07:00:00 11,8 9,8 - - 26 14 - - S 994,5 16 0 0,0
18.08.2019 06:00:00 11,7 9,7 - - 31 17 - - S 994,8 16 0 0,0
18.08.2019 05:00:00 11,6 9,3 - - 29 16 - - S 995,1 17 0 0,0
18.08.2019 04:00:00 11,4 9,2 - - 28 15 - - S 995,6 19 0 0,0
18.08.2019 03:00:00 11,5 9,2 - - 24 13 - - S 996,0 22 0 0,0
18.08.2019 02:00:00 12,3 10,3 - - 21 11 - - SSW 996,2 21 0 0,0
18.08.2019 01:00:00 12,2 10,5 - - 15 8 - - S 996,5 19 - 0,0
18.08.2019 00:00:00 12,6 10,7 - - 24 13 - - S 996,7 16 0 0,0
17.08.2019 23:00:00 12,9 11,0 - - 24 13 - - S 996,8 14 0 0,0
17.08.2019 22:00:00 12,7 11,1 - - 22 12 - - S 997,0 15 0 0,0
17.08.2019 21:00:00 12,3 10,3 - - 22 12 46 25 S 997,1 23 0 0,0
17.08.2019 20:00:00 13,6 10,9 - - 31 17 54 29 SSW 996,7 14 0 0,0
17.08.2019 19:00:00 14,1 10,7 - - 35 19 55 30 SSW 996,7 22 6 0,0
17.08.2019 18:00:00 14,2 10,7 - - 37 20 55 30 SSW 996,9 15 6 0,0
17.08.2019 17:00:00 14,2 9,8 - - 31 17 57 31 SSW 997,1 23 18 0,0
17.08.2019 16:00:00 15,7 7,8 - - 39 21 57 31 SSW 996,8 25 54 0,0
17.08.2019 15:00:00 16,1 8,4 - - 41 22 61 33 SSW 996,9 22 36 0,0
17.08.2019 14:00:00 16,2 9,1 - - 34 18 54 29 SW 996,7 29 36 0,0
17.08.2019 13:00:00 15,9 9,7 - - 34 18 57 31 SSW 996,5 15 42 0,0
17.08.2019 12:00:00 15,1 11,1 - - 16 9 48 26 SW 996,6 27 18 0,6
17.08.2019 11:00:00 13,2 9,6 - - 21 11 - - SW 996,7 27 12 0,0
17.08.2019 10:00:00 13,8 9,8 15,9 14,7 26 14 50 27 SW 996,2 23 48 0,0
17.08.2019 09:00:00 12,8 10,3 - - 28 15 - - SW 996,1 23 12 0,0
17.08.2019 08:00:00 11,8 10,5 - - 11 6 - - S 995,9 27 6 0,0
17.08.2019 07:00:00 11,2 10,0 - - 13 7 - - SSW 995,2 30 0 0,0
17.08.2019 06:00:00 12,5 10,9 - - 16 9 - - WSW 994,2 50 0 2,6
17.08.2019 05:00:00 12,6 12,1 - - 16 9 - - S 993,7 4,3 0 0,2
17.08.2019 04:00:00 12,8 11,6 - - 21 11 - - SSW 994,1 24 0 0,0
17.08.2019 03:00:00 13,0 11,6 - - 18 10 - - SSW 994,4 26 0 0,0
17.08.2019 02:00:00 12,7 11,9 - - 13 7 - - S 994,2 18 0 0,0
17.08.2019 01:00:00 12,7 12,2 - - 9 5 - - S 994,3 12 - 0,0
17.08.2019 00:00:00 14,1 13,3 - - 16 9 - - SSW 994,3 15 0 0,0
16.08.2019 23:00:00 14,9 13,7 - - 21 11 - - SSW 994,1 23 0 0,0
16.08.2019 22:00:00 15,3 15,0 - - 16 9 - - SSW 993,9 15 0 2,2
16.08.2019 21:00:00 15,4 15,1 - - 21 11 - - S 994,2 2,7 0 1,0
16.08.2019 20:00:00 15,5 15,4 - - 18 10 - - S 994,6 2,9 0 0,6
16.08.2019 19:00:00 15,5 15,3 - - 18 10 - - S 995,5 3,2 6 0,8
16.08.2019 18:00:00 16,2 15,4 - - 26 14 - - S 996,1 16 6 0,0
16.08.2019 17:00:00 15,8 15,3 - - 26 14 46 25 S 996,9 7 0 0,4
16.08.2019 16:00:00 15,1 15,0 - - 31 17 48 26 S 997,7 1,8 0 0,2
16.08.2019 15:00:00 14,9 14,7 - - 29 16 48 26 S 998,1 2,0 0 1,0
16.08.2019 14:00:00 14,8 14,4 - - 34 18 57 31 S 998,9 3,5 0 4,2
16.08.2019 13:00:00 14,3 13,8 - - 28 15 - - S 999,6 2,5 0 5,6
16.08.2019 12:00:00 13,7 13,2 - - 28 15 59 32 S 1000,7 3,8 0 3,8
16.08.2019 11:00:00 12,9 12,3 - - 29 16 61 33 S 1001,9 5 0 5,6
16.08.2019 10:00:00 13,3 12,7 16,0 14,7 37 20 65 35 S 1002,9 4,0 0 3,2
16.08.2019 09:00:00 13,3 12,3 - - 35 19 63 34 S 1003,6 8 0 2,6
16.08.2019 08:00:00 13,3 12,5 - - 34 18 55 30 S 1004,4 6 0 1,6
16.08.2019 07:00:00 13,5 12,4 - - 34 18 55 30 S 1005,3 10 0 0,4
16.08.2019 06:00:00 13,5 12,2 - - 26 14 - - S 1006,2 16 0 0,0
16.08.2019 05:00:00 13,6 12,6 - - 22 12 46 25 S 1007,5 12 0 0,0
16.08.2019 04:00:00 13,5 13,1 - - 22 12 - - SSE 1008,2 10 0 0,8
16.08.2019 03:00:00 13,1 12,4 - - 15 8 - - SSE 1009,4 21 0 0,0
16.08.2019 02:00:00 12,9 12,3 - - 11 6 - - SSE 1010,4 23 0 0,2
16.08.2019 01:00:00 13,1 11,7 - - 13 7 - - SSE 1011,0 21 - 0,0
16.08.2019 00:00:00 12,9 11,6 - - 8 4 - - SSE 1011,7 20 0 0,0
15.08.2019 23:00:00 12,4 10,2 - - 4 2 - - SSW 1012,7 30 0 0,0
15.08.2019 22:00:00 11,9 9,4 - - 13 7 - - SSW 1012,7 45 0 0,0
15.08.2019 21:00:00 13,1 9,5 - - 13 7 - - SSE 1012,6 45 0 0,0
15.08.2019 20:00:00 13,6 8,9 - - 5 3 - - SSW 1012,3 45 42 0,0
15.08.2019 19:00:00 16,0 8,1 - - 15 8 - - WSW 1012,0 40 60 0,0
15.08.2019 18:00:00 15,3 6,8 - - 24 13 - - WSW 1011,5 45 54 0,0
15.08.2019 17:00:00 16,0 6,3 - - 18 10 - - WSW 1010,8 30 54 0,0
15.08.2019 16:00:00 15,2 6,5 - - 15 8 - - W 1010,5 50 30 0,0
15.08.2019 15:00:00 15,3 9,0 - - 24 13 46 25 W 1010,2 50 48 0,0
15.08.2019 14:00:00 16,5 8,2 - - 29 16 50 27 W 1009,0 50 60 0,0
15.08.2019 13:00:00 15,6 8,8 - - 13 7 - - W 1008,4 50 6 0,0
15.08.2019 12:00:00 13,9 8,1 - - 13 7 - - W 1007,8 50 0 0,0
15.08.2019 11:00:00 14,5 9,4 - - 24 13 50 27 WNW 1006,3 40 42 0,0
15.08.2019 10:00:00 13,7 9,9 15,9 14,9 22 12 - - W 1005,3 40 12 0,0
15.08.2019 09:00:00 12,6 10,3 - - 21 11 - - WNW 1004,9 35 18 0,0
15.08.2019 08:00:00 13,1 11,3 - - 15 8 - - W 1003,5 45 0 0,2
15.08.2019 07:00:00 12,9 11,7 - - 9 5 - - W 1002,5 40 0 0,0
15.08.2019 06:00:00 13,1 11,9 - - 16 9 - - W 1001,6 50 0 0,6
15.08.2019 05:00:00 13,2 12,6 - - 13 7 - - SSW 1001,3 8 0 0,2
15.08.2019 04:00:00 13,2 12,7 - - 15 8 - - SW 1001,3 30 0 0,2
15.08.2019 03:00:00 13,0 12,4 - - 9 5 - - S 1001,3 8 0 0,0
15.08.2019 02:00:00 12,5 12,1 - - 8 4 - - SSW 1001,8 35 0 0,0
15.08.2019 01:00:00 13,6 12,8 - - 11 6 - - WSW 1001,7 50 - 0,8
15.08.2019 00:00:00 13,9 13,8 - - 8 4 - - S 1001,5 4,7 0 1,0
14.08.2019 23:00:00 13,8 13,8 - - 8 4 - - S 1001,8 3,3 0 0,8
14.08.2019 22:00:00 13,9 13,8 - - 4 2 - - SSW 1002,2 2,3 0 1,8
14.08.2019 21:00:00 13,8 13,7 - - 4 2 - - SSE 1002,6 1,8 0 0,0
14.08.2019 20:00:00 14,1 13,5 - - 8 4 - - SSE 1002,9 17 0 0,0
14.08.2019 19:00:00 14,2 13,6 - - 8 4 - - SSE 1003,3 35 0 0,2
14.08.2019 18:00:00 14,1 13,5 - - 5 3 - - SSE 1004,0 6 0 0,2
14.08.2019 17:00:00 14,2 13,4 - - 8 4 - - SE 1004,6 3,9 0 0,0
14.08.2019 16:00:00 14,1 13,2 - - 9 5 - - SSE 1005,4 15 0 0,2
14.08.2019 15:00:00 13,7 12,9 - - 8 4 - - SE 1006,2 8 0 0,4
14.08.2019 14:00:00 13,4 12,6 - - 11 6 - - SSE 1007,0 8 0 0,6
14.08.2019 13:00:00 12,6 11,6 - - 9 5 - - SE 1007,8 11 0 0,0
14.08.2019 12:00:00 12,9 11,2 - - 4 2 - - E 1008,2 16 0 0,2
14.08.2019 11:00:00 11,9 10,9 - - 2 1 - - NNE 1008,9 18 0 1,6
14.08.2019 10:00:00 11,0 10,5 16,2 14,9 8 4 - - SE 1009,8 10 0 1,4
14.08.2019 09:00:00 10,7 9,9 - - 5 3 - - SSE 1010,5 10 0 0,6
14.08.2019 08:00:00 10,2 9,3 - - 2 1 - - S 1010,9 16 0 0,2
14.08.2019 07:00:00 9,7 9,2 - - 2 1 - - W 1011,3 20 0 0,0
14.08.2019 06:00:00 9,2 8,9 - - 4 2 - - NW 1011,8 20 0 0,0
14.08.2019 05:00:00 8,3 8,1 - - 2 1 - - S 1012,2 15 0 0,0
14.08.2019 04:00:00 8,1 8,0 - - 2 1 - - WNW 1013,1 21 0 0,0
14.08.2019 03:00:00 7,2 7,0 - - 2 1 - - N 1013,9 25 0 0,0
14.08.2019 02:00:00 6,6 6,5 - - 4 2 - - NW 1014,3 25 0 0,0
14.08.2019 01:00:00 6,0 5,9 - - 2 1 - - NW 1014,7 12 - 0,0
14.08.2019 00:00:00 6,7 6,4 - - 4 2 - - NW 1014,9 28 0 0,0
13.08.2019 23:00:00 7,3 6,8 - - 2 1 - - NW 1015,0 35 0 0,0
13.08.2019 22:00:00 7,8 7,1 - - 4 2 - - W 1015,0 45 0 0,0
13.08.2019 21:00:00 9,6 7,2 - - 11 6 - - WSW 1015,0 45 6 0,0
13.08.2019 20:00:00 12,2 6,3 - - 9 5 - - WSW 1014,6 50 36 0,0
13.08.2019 19:00:00 14,2 6,8 - - 18 10 - - WSW 1014,2 45 48 0,0
13.08.2019 18:00:00 14,3 7,2 - - 13 7 - - WSW 1014,2 40 24 0,0
13.08.2019 17:00:00 15,8 6,6 - - 22 12 - - W 1013,9 35 48 0,0
13.08.2019 16:00:00 14,4 8,4 - - 24 13 - - W 1014,2 15 36 0,0
13.08.2019 15:00:00 15,8 7,3 - - 15 8 - - SSW 1013,8 40 36 0,0
13.08.2019 14:00:00 13,6 9,8 - - 15 8 - - WSW 1014,2 25 30 2,0
13.08.2019 13:00:00 14,7 10,1 - - 22 12 - - SSW 1014,0 35 54 0,0
13.08.2019 12:00:00 12,7 10,4 - - 11 6 - - SW 1014,6 40 24 0,6
13.08.2019 11:00:00 13,7 7,6 - - 15 8 - - W 1014,4 35 30 0,0
13.08.2019 10:00:00 12,4 8,5 16,2 15,0 15 8 - - WSW 1014,5 50 36 0,0
13.08.2019 09:00:00 9,1 9,1 - - 4 2 - - SE 1015,0 40 30 0,0
13.08.2019 08:00:00 5,6 5,6 - - 4 2 - - ESE 1015,4 0,6 0 0,0
13.08.2019 07:00:00 4,3 4,3 - - 0 0 - - N 1015,1 0,1 0 0,0
13.08.2019 06:00:00 4,0 4,0 - - 4 2 - - SSE 1015,0 0,1 0 0,0
13.08.2019 05:00:00 4,4 4,4 - - 0 0 - - N 1015,0 0,5 0 0,0
13.08.2019 04:00:00 4,9 4,9 - - 2 1 - - NNE 1015,1 0,2 0 0,0
13.08.2019 03:00:00 5,0 5,0 - - 4 2 - - W 1015,1 0,2 0 0,2
13.08.2019 02:00:00 5,6 5,6 - - 2 1 - - NNW 1014,9 0,1 0 0,0
13.08.2019 01:00:00 6,1 6,1 - - 2 1 - - W 1014,9 0,3 - 0,0
13.08.2019 00:00:00 6,9 6,9 - - 2 1 - - W 1014,8 0,1 0 0,0
12.08.2019 23:00:00 7,6 7,6 - - 2 1 - - NW 1014,8 0,5 0 0,0

tt = temperature
td = dewpoint
tt -20cm = temperature -20cm
tt -100cm = temperature -100cm
ff = wind speed
fx = gusts
dd = wind direction
ppp = reduced air pressure
vv = visibility
sd = sunshine duration
rr = precipitation

Next stations